| time (UTC) | temp F | wind direction | speed knots | gust knots | rain 1hr in | rain 24hr in | rain mn in | humidity % | barometer mb |
| 20260505200031 | 56 | 43 | 2.6 | 10.4 | 0.00 | 0.00 | 0.00 | 55 | 1012.7 |
| 20260505194515 | 56 | 18 | 3.5 | 8.7 | 0.00 | 0.00 | 0.00 | 57 | 1012.5 |
| 20260505193112 | 56 | 335 | 2.6 | 7.8 | 0.00 | 0.00 | 0.00 | 59 | 1012.3 |
| 20260505191508 | 57 | 306 | 0.9 | 4.3 | 0.00 | 0.00 | 0.00 | 59 | 1012.1 |
| 20260505190004 | 57 | 318 | 0.9 | 4.3 | 0.00 | 0.00 | 0.00 | 59 | 1012.1 |
| 20260505184502 | 57 | 348 | 0.0 | 5.2 | 0.00 | 0.00 | 0.00 | 60 | 1012.0 |
| 20260505183107 | 57 | 337 | 1.7 | 7.0 | 0.00 | 0.00 | 0.00 | 60 | 1012.0 |
| 20260505181556 | 58 | 311 | 1.7 | 4.3 | 0.00 | 0.00 | 0.00 | 60 | 1012.0 |
| 20260505180051 | 58 | 348 | 0.9 | 7.8 | 0.00 | 0.00 | 0.00 | 60 | 1012.0 |
| 20260505174550 | 58 | 313 | 2.6 | 8.7 | 0.00 | 0.00 | 0.00 | 60 | 1012.0 |
| 20260505173047 | 58 | 317 | 4.3 | 8.7 | 0.00 | 0.00 | 0.00 | 60 | 1012.1 |
| 20260505171538 | 58 | 348 | 1.7 | 8.7 | 0.00 | 0.00 | 0.00 | 60 | 1012.1 |
| 20260505170037 | 58 | 328 | 1.7 | 7.8 | 0.00 | 0.00 | 0.00 | 60 | 1012.1 |
| 20260505164546 | 58 | 6 | 3.5 | 7.8 | 0.00 | 0.00 | 0.00 | 60 | 1012.1 |
| 20260505163025 | 58 | 333 | 2.6 | 5.2 | 0.00 | 0.00 | 0.00 | 60 | 1012.1 |
| 20260505161520 | 58 | 6 | 0.9 | 5.2 | 0.00 | 0.00 | 0.00 | 60 | 1012.1 |
| 20260505153010 | 61 | 321 | 2.6 | 7.8 | 0.00 | 0.00 | 0.00 | 60 | 1012.3 |
| 20260505151502 | 61 | 333 | 0.9 | 4.3 | 0.00 | 0.00 | 0.00 | 58 | 1012.3 |
| 20260505124525 | 60 | 358 | 1.7 | 4.3 | 0.00 | 0.00 | 0.00 | 59 | 1012.8 |
| 20260505123014 | 61 | 37 | 1.7 | 5.2 | 0.00 | 0.00 | 0.00 | 59 | 1012.9 |
| 20260505121510 | 61 | 19 | 0.9 | 7.0 | 0.00 | 0.00 | 0.00 | 59 | 1012.9 |
| 20260505120006 | 60 | 338 | 2.6 | 7.8 | 0.00 | 0.00 | 0.00 | 59 | 1012.8 |
| 20260505114501 | 59 | 304 | 2.6 | 7.0 | 0.00 | 0.00 | 0.00 | 58 | 1012.9 |
| 20260505113101 | 58 | 40 | 2.6 | 5.2 | 0.00 | 0.00 | 0.00 | 55 | 1013.0 |
| 20260505111556 | 57 | 339 | 0.9 | 6.1 | 0.00 | 0.00 | 0.00 | 52 | 1013.2 |
| 20260505101533 | 56 | 2 | 2.6 | 6.1 | 0.00 | 0.00 | 0.00 | 45 | 1013.6 |
| 20260505100040 | 56 | 307 | 1.7 | 9.6 | 0.00 | 0.00 | 0.00 | 42 | 1013.5 |
| 20260505094524 | 56 | 353 | 0.9 | 6.1 | 0.00 | 0.00 | 0.00 | 30 | 1013.6 |
| 20260505093019 | 56 | 310 | 1.7 | 7.0 | 0.00 | 0.00 | 0.00 | 28 | 1013.6 |
| 20260505091514 | 56 | 297 | 4.3 | 10.4 | 0.00 | 0.00 | 0.00 | 23 | 1013.7 |
| 20260505090010 | 56 | 62 | 3.5 | 8.7 | 0.00 | 0.00 | 0.00 | 9 | 1013.6 |
| 20260505084506 | 55 | 289 | 3.5 | 7.0 | 0.00 | 0.00 | 0.00 | 1 | 1013.8 |
| 20260505083005 | 54 | 304 | 2.6 | 7.0 | 0.00 | 0.00 | 0.00 | 1 | 1013.9 |
| 20260505081604 | 53 | 311 | 1.7 | 5.2 | 0.00 | 0.00 | 0.00 | 1 | 1013.9 |
| 20260505080059 | 53 | 33 | 2.6 | 7.0 | 0.00 | 0.00 | 0.00 | 1 | 1014.0 |
| 20260505074609 | 53 | 334 | 1.7 | 4.3 | 0.00 | 0.00 | 0.00 | 1 | 1013.8 |
| 20260505073052 | 53 | 316 | 0.9 | 4.3 | 0.00 | 0.00 | 0.00 | 1 | 1013.9 |
| 20260505071545 | 53 | 4 | 1.7 | 5.2 | 0.00 | 0.00 | 0.00 | 1 | 1014.0 |
| 20260505070040 | 52 | 325 | 0.9 | 4.3 | 0.00 | 0.00 | 0.00 | 1 | 1014.0 |
| 20260505064537 | 51 | 33 | 1.7 | 4.3 | 0.00 | 0.00 | 0.00 | 1 | 1014.0 |
| 20260505063039 | 51 | 301 | 0.9 | 3.5 | 0.00 | 0.00 | 0.00 | 1 | 1014.0 |
| 20260505061532 | 50 | 320 | 1.7 | 5.2 | 0.00 | 0.00 | 0.00 | 1 | 1013.9 |
| 20260505060021 | 50 | 297 | 0.0 | 4.3 | 0.00 | 0.00 | 0.00 | 1 | 1014.0 |
| 20260505054523 | 50 | 343 | 1.7 | 4.3 | 0.00 | 0.00 | 0.00 | 1 | 1014.0 |
| 20260505053012 | 50 | 297 | 0.0 | 3.5 | 0.00 | 0.00 | 0.00 | 1 | 1014.0 |
| 20260505051508 | 50 | 321 | 0.9 | 2.6 | 0.00 | 0.00 | 0.00 | 1 | 1014.0 |
| 20260505041553 | 50 | 335 | 0.0 | 3.5 | 0.00 | 0.00 | 0.00 | 1 | 1014.2 |
| 20260505040049 | 50 | 332 | 0.0 | 3.5 | 0.00 | 0.00 | 0.00 | 1 | 1014.3 |
| 20260505034546 | 50 | 358 | 0.0 | 3.5 | 0.00 | 0.00 | 0.00 | 1 | 1014.2 |
| 20260505033048 | 50 | 302 | 0.9 | 3.5 | 0.00 | 0.00 | 0.00 | 1 | 1014.2 |
| 20260505031535 | 50 | 335 | 0.0 | 1.7 | 0.00 | 0.00 | 0.00 | 1 | 1014.2 |
| 20260505030031 | 51 | 331 | 0.0 | 1.7 | 0.00 | 0.00 | 0.00 | 1 | 1014.1 |
| 20260505024549 | 51 | 343 | 0.0 | 2.6 | 0.00 | 0.00 | 0.00 | 1 | 1014.1 |
| 20260505023025 | 51 | 50 | 0.0 | 1.7 | 0.00 | 0.00 | 0.00 | 1 | 1014.1 |
| 20260505021536 | 52 | 332 | 0.0 | 2.6 | 0.00 | 0.00 | 0.00 | 1 | 1014.3 |
| 20260505020013 | 52 | 27 | 0.0 | 3.5 | 0.00 | 0.00 | 0.00 | 1 | 1014.2 |
| 20260505014509 | 53 | 353 | 0.0 | 3.5 | 0.00 | 0.00 | 0.00 | 1 | 1014.4 |
| 20260505013005 | 53 | 331 | 1.7 | 4.3 | 0.00 | 0.00 | 0.00 | 1 | 1014.4 |
| 20260505011601 | 54 | 29 | 0.9 | 3.5 | 0.00 | 0.00 | 0.00 | 1 | 1014.7 |
| 20260505010056 | 54 | 348 | 0.9 | 3.5 | 0.00 | 0.00 | 0.00 | 1 | 1014.7 |
| 20260505004551 | 54 | 2 | 0.9 | 3.5 | 0.00 | 0.00 | 0.00 | 1 | 1014.7 |
| 20260505003046 | 54 | 339 | 0.9 | 2.6 | 0.00 | 0.00 | 0.00 | 1 | 1014.8 |
| 20260505001542 | 55 | 34 | 0.0 | 3.5 | 0.00 | 0.00 | 0.00 | 1 | 1014.9 |
| 20260505000039 | 55 | 48 | 0.9 | 3.5 | 0.00 | 0.00 | 0.00 | 1 | 1014.9 |
| 20260504234532 | 55 | 55 | 0.9 | 3.5 | 0.00 | 0.00 | 0.00 | 1 | 1015.0 |
| 20260504233027 | 55 | 46 | 0.0 | 2.6 | 0.00 | 0.00 | 0.00 | 1 | 1015.1 |
| 20260504231524 | 55 | 12 | 0.9 | 4.3 | 0.00 | 0.00 | 0.00 | 1 | 1015.1 |
| 20260504230019 | 55 | 61 | 1.7 | 4.3 | 0.00 | 0.00 | 0.00 | 1 | 1015.1 |
| 20260504224514 | 56 | 33 | 1.7 | 3.5 | 0.00 | 0.00 | 0.00 | 1 | 1015.3 |
| 20260504223010 | 56 | 343 | 0.9 | 2.6 | 0.00 | 0.00 | 0.00 | 1 | 1015.2 |
| 20260504221505 | 57 | 348 | 0.9 | 7.0 | 0.00 | 0.00 | 0.00 | 1 | 1015.3 |
| 20260504220001 | 57 | 17 | 0.9 | 4.3 | 0.00 | 0.00 | 0.00 | 1 | 1015.3 |
| 20260504214556 | 57 | 29 | 0.9 | 4.3 | 0.00 | 0.00 | 0.00 | 3 | 1015.3 |
| 20260504213104 | 57 | 353 | 0.0 | 3.5 | 0.00 | 0.00 | 0.00 | 5 | 1015.4 |
| 20260504211554 | 57 | 15 | 0.9 | 4.3 | 0.00 | 0.00 | 0.00 | 5 | 1015.3 |
| 20260504210052 | 57 | 20 | 0.9 | 3.5 | 0.00 | 0.00 | 0.00 | 6 | 1015.4 |
| 20260504204559 | 58 | 44 | 0.9 | 4.3 | 0.00 | 0.00 | 0.00 | 7 | 1015.3 |
| 20260504203042 | 58 | 18 | 1.7 | 4.3 | 0.00 | 0.00 | 0.00 | 9 | 1015.3 |
| 20260504201536 | 58 | 344 | 0.9 | 7.0 | 0.00 | 0.00 | 0.00 | 13 | 1015.2 |